COSMOS 1275 DEB, 12670

Orbit data source: Space-Track

COSMOS 1275 DEB, 12670 is space debris in LEO originally from a launch on Thu, 04 Jun 1981 UTC launched from the Plesetsk Missile And Space Complex (PKMTR). Debris objects in space refer to the collection of defunct objects orbiting the Earth. Examples of debris include non-operational satellites, rocket bodies, and fragments generated from explosions, collisions, or faulty payload assembly.

Loading next visibility...
COSMOS 1275 DEB details
Identifier
12670, 1981-053AA
Orbit
LEO
Last TLE update7 hours ago
Origin
Flag of CISVMF (CIS)
ManufacturerUnknown
MissionSpacecraft
Bus & MotorUnknown
MassUnknown
Launch date (UTC)
1981-06-04 (44 years ago)
Launch vehicleUnknown
Launch site
Plesetsk Missile And Space Complex (PKMTR)
Object type
Payload
Rocket body
Debris
Shape & HBRUnknown
Radar Cross SectionMedium (>0.1 m² and <1 m²)

Expand to show TLE details & history

TLE from 7 hours ago
0 COSMOS 1275 DEB
1 12670U 81053AA  25025.54782234  .00000981  00000-0  91091-3 0  9993
2 12670  82.9390 224.4303 0056318  55.4775 323.6200 13.80553523183714
Epoch: 2025-01-25T13:08Z
Definitive object data (Epoch: 2025-01-25T13:08:51.85Z)
Latitude18.56061°
Longitude-95.50964°
Altitude931.109 km
Speed7.404 km/s
True Right ascension15h 07m 12s
True Declination18° 27' 34"
Sunlit
Object was in daylight at TLE epoch
Visualization TLE readout
Latitude19.18352°
Longitude-95.64079°
Altitude930.546 km
Speed7.405 km/s
Apparent Right ascension12h 52m 23s
Apparent Declination-10° 47' 52"
Sunlit
Object is in daylight
Visualization observer readout
Local Sidereal Time21:27:33
Azimuth288.162° WNW
Elevation-36.312°
Doppler factor1
Orbital elements
Apogee altitude1,000.387 km
Perigee altitude917.744 km
Semi-major axis7,337.202 km
Eccentricity0.0056318
Inclination82.939°
RAAN224.4303°
Arg. of periapsis55.4775°
True anomaly323.23504°
Mean anomaly323.62°
Eccentric anomaly323.42774°
Mean motion3.4534 °/min
BSTAR0.00091091
Orbital period104.24 mins
Loading maneuver chart data...
Loading historical data...
Loading historical data...
Loading historical data...
Loading historical data...
Loading historical data...
Loading historical data...
Loading historical data...

COSMOS 1275 DEB Visibility forecast

Observer location: undefined°, undefined

Span
Click to sort rows by Start time (UTC) header in descending order
Start Az.
Max El. time (UTC)
Max El. Az.
Max El.
End time (UTC)
End Az.
9 mins2025-01-26 00:04:30.115Z17.833° NNE2025-01-26 00:09:30.115Z79.45° E25.812°2025-01-26 00:13:30.115Z127.222° SE
9 mins2025-01-26 01:50:30.115Z328.369° NNW2025-01-26 01:54:30.115Z266.464° W32.387°2025-01-26 01:59:30.115Z206.074° SW
10 mins2025-01-26 13:31:30.115Z170.331° S2025-01-26 13:36:30.115Z70.242° E41.411°2025-01-26 13:41:30.115Z14.245° NNE
5 mins2025-01-26 15:19:30.115Z265.592° W2025-01-26 15:21:30.115Z288.99° WNW16.658°2025-01-26 15:24:30.115Z323.13° NNW
|